Weather Roundup
Issued by NWS

Home | Current Version | Previous Version | Graphics & Text | Print | Product List | Glossary Off
Versions: 1 2 3 4 5 6 7 8 9 10 11 12 13 14 15 16 17 18 19 20 21 22 23 24 25 26 27 28 29 30 31 32 33 34 35 36 37 38 39 40 41 42 43 44 45 46 47 48 49 50

918
NZUS93 KARX 032210
HRRWXR

CURRENT HOURLY OBSERVATIONS ACROSS
MUCH OF THE UPPER MISSISSIPPI VALLEY
NATIONAL WEATHER SERVICE LA CROSSE WI
500 PM CDT TUE MAY 03 2016


...SOUTHEAST MINNESOTA...


CITY           SKY/WX    TMP DP  RH WIND       PRES   REMARKS
ROCHESTER      MOSUNNY   67  39  35 W20G32    29.75F
ROCHESTER/MAYO FAIR      68  37  31 W16G28    29.74F
WINONA         PTSUNNY   70  36  28 W14G24    29.72F
AUSTIN         MOSUNNY   66  39  37 W21       29.77F
ALBERT LEA     MOSUNNY   66  43  42 W13       29.76F
DODGE CENTER   MOSUNNY   66  37  34 W17G28    29.75F
PRESTON        MOSUNNY   66  36  33 W21G31    29.77F
OWATONNA       MOSUNNY   70  37  30 W22       29.75F
FARIBAULT      CLOUDY    70  39  32 W12G21    29.73F
$$

...ELSEWHERE IN MINNESOTA...


CITY           SKY/WX    TMP DP  RH WIND       PRES   REMARKS
MINNEAPOLIS    PTSUNNY   70  39  32 W15G25    29.69F
INTNL FALLS    PTSUNNY   59  33  37 N17       29.81R
DULUTH         PTSUNNY   67  27  22 N22G36    29.68R
RED WING       CLOUDY    72  36  26 W13G23    29.69F
REDWOOD FALLS  CLOUDY    73  39  29 W23G31    29.74F
MANKATO        PTSUNNY   70  39  32 W15G23    29.74F
WORTHINGTON    MOSUNNY   67  42  40 NW18G26   29.83F
FAIRMONT       PTSUNNY   70  43  37 W21G28    29.78F
$$

...SOUTHWEST WISCONSIN...


CITY           SKY/WX    TMP DP  RH WIND       PRES   REMARKS
LA CROSSE      PTSUNNY   69  37  30 W15G28    29.72F
PRAIRIE DU CHI CLOUDY    68  34  28 SW16G28   29.77F
BOSCOBEL       LGT RAIN  70  37  29 SW10G24   29.76F
LONE ROCK      CLOUDY    68  38  33 W18G26    29.75F
PLATTEVILLE    CLOUDY    66  40  38 W15G22    29.80F
FORT MC COY    PTSUNNY   68  36  30 W15       29.71F
CAMP DOUGLAS   PTSUNNY   68  39  34 W25G32    29.69F
MAUSTON-NEW LI MOCLDY    67  37  33 W16G25    29.71F
VIROQUA        MOCLDY    65  34  31 W24G30    29.75F
WIS DELLS      CLOUDY    66  33  28 W14G22    29.72F
$$

...ELSEWHERE IN WISCONSIN...


CITY           SKY/WX    TMP DP  RH WIND       PRES   REMARKS
MILWAUKEE      CLOUDY    66  33  29 W15G28    29.75F
MADISON        CLOUDY    65  37  35 W10G20    29.75F
GREEN BAY      CLOUDY    66  34  30 W10       29.66F
EAU CLAIRE     CLOUDY    69  37  30 W20G32    29.66F
BLACK RVR FLS  CLOUDY    68  32  26 W17G25    29.69F
MEDFORD        LGT RAIN  58  41  53 SW5       29.67F
WAUSAU         LGT RAIN  60  40  47 NW13G23   29.67R
WIS RAPIDS     CLOUDY    66  30  26 W12G22    29.69F
MARSHFIELD     LGT RAIN  61  37  41 NW13G28   29.69R
RICE LAKE      PTSUNNY   67  36  31 W17G32    29.66F
$$

...NORTHEAST IOWA...


CITY           SKY/WX    TMP DP  RH WIND       PRES   REMARKS
WATERLOO       CLOUDY    68  39  34 W18G28    29.81F
DUBUQUE        PTSUNNY   64  39  39 W14G25    29.82F
DECORAH        PTSUNNY   66  36  32 W10G21    29.77F
MASON CITY     MOSUNNY   66  44  45 W21G29    29.81F
CHARLES CITY   MOSUNNY   68  37  32 W23G29    29.80F
OELWEIN        CLOUDY    66  41  39 W24       29.81F
$$

...ELSEWHERE IN IOWA...


CITY           SKY/WX    TMP DP  RH WIND       PRES   REMARKS
DES MOINES     CLOUDY    68  39  34 W13       29.89F
IOWA CITY      CLOUDY    66  40  38 W14G23    29.87F
FORT DODGE     MOSUNNY   66  45  45 W17G24    29.86F
MARSHALLTOWN   PTSUNNY   66  42  41 W21G32    29.84F
CEDAR RAPIDS   PTSUNNY   65  42  43 W23       29.84F
$$

...NORTHERN ILLINOIS...


CITY           SKY/WX    TMP DP  RH WIND       PRES   REMARKS
CHICAGO-OHARE  PTSUNNY   65  38  36 W16G22    29.80F
CHICAGO-MIDWAY PTSUNNY   66  36  32 W15       29.82F
MOLINE         MOSUNNY   66  39  37 W15G24    29.85F
ROCKFORD       CLOUDY    66  39  37 W17G23    29.82F
PEORIA         PTSUNNY   68  37  32 W14G20    29.88F
$$

NOTE: "FAIR" INDICATES FEW OR NO CLOUDS BELOW 12,000 FEET WITH NO
SIGNIFICANT WEATHER AND/OR OBSTRUCTIONS TO VISIBILITY. WIND
SPEEDS ARE IN MILES-PER-HOUR.




USA.gov is the U.S. government's official web portal to all federal, state and local government web resources and services.